Wind_Speed
11 12 13 14 15 15 15 15 16 16 16 16 15 15 16 17 18 18 17 17 17 17 17 16 16 17 18 18 19 19 18 17 16 16 15 14 14 13 12 11 10 9 9
11 12 12 13 13 14 14 15 16 16 16 16 16 16 16 18 18 18 19 19 19 19 19 19 19 19 20 20 21 21 21 20 19 19 18 17 16 15 14 13 12 11 10
11 12 12 12 12 13 14 15 15 16 16 17 17 17 18 18 19 20 21 20 20 20 20 21 21 21 22 22 23 23 24 23 22 21 21 19 18 17 16 15 14 14 12
11 12 12 13 13 14 15 16 16 17 17 17 18 19 19 20 20 21 22 22 22 22 22 23 23 23 24 24 25 26 26 26 26 24 23 22 21 20 19 18 17 16 15
11 11 12 13 14 14 14 15 16 17 18 18 19 20 20 21 21 21 23 23 23 24 24 24 25 25 26 26 26 27 27 28 28 28 27 25 24 23 21 20 20 19 18
10 11 12 12 13 14 14 15 16 17 18 19 19 20 20 21 21 22 22 23 24 24 25 25 26 26 27 27 28 28 29 29 30 30 30 28 27 26 25 24 23 22 20
9 10 10 11 12 12 13 14 15 16 17 18 19 20 20 21 22 23 23 24 24 25 25 26 26 27 28 29 29 29 29 30 31 32 32 31 30 29 28 27 26 24 23
7 8 9 10 11 12 13 14 15 16 16 17 18 19 20 21 22 23 24 25 25 26 27 27 27 28 29 29 30 30 31 31 31 33 34 34 33 33 31 30 29 28 26
6 7 8 9 10 10 12 13 14 15 16 16 17 19 20 21 22 23 24 25 26 27 28 29 29 30 30 31 31 31 32 32 33 34 34 35 35 35 34 34 32 31 29
6 7 8 8 9 10 12 13 13 15 16 17 18 19 20 21 22 23 24 25 26 28 28 29 30 31 32 33 33 34 34 34 34 34 35 35 37 37 37 36 36 35 33
6 7 8 9 11 12 13 13 14 15 16 17 18 19 20 20 22 23 24 25 26 27 28 30 31 32 33 34 35 35 36 36 36 36 35 36 37 38 39 39 38 37 36
7 8 9 11 12 13 14 15 16 16 17 18 19 20 20 21 22 23 24 25 26 27 29 30 32 33 34 35 36 37 37 38 38 38 38 38 38 39 39 40 40 40 38
7 9 11 12 14 15 16 16 17 18 19 20 20 21 21 22 23 23 24 25 27 28 29 31 32 33 34 35 37 38 39 39 39 39 40 40 40 40 40 40 40 41 41
8 10 12 14 15 16 18 18 19 20 20 21 22 23 23 24 25 25 26 26 27 28 30 31 32 34 35 36 37 39 39 40 41 41 41 42 42 41 41 41 41 41 42
10 12 14 16 17 18 19 20 21 21 22 23 24 25 26 26 27 27 28 28 28 29 30 32 33 34 35 36 38 39 40 41 42 42 42 42 43 43 43 43 42 42 42
13 15 16 17 19 20 21 22 23 23 24 24 25 26 27 27 27 28 29 30 30 31 31 33 34 36 36 37 39 40 41 42 42 43 44 44 43 43 44 45 45 44 43
15 16 18 19 20 21 22 23 24 25 26 26 27 27 28 28 28 29 30 30 31 32 32 33 35 37 38 39 40 41 42 43 44 44 45 46 46 45 45 46 47 47 45
16 17 19 21 22 23 24 25 26 27 27 28 29 29 30 30 30 31 31 31 32 32 32 33 35 37 39 40 40 41 43 44 44 45 45 46 47 48 47 47 48 49 48
18 19 21 23 24 24 26 26 28 29 29 30 31 31 31 32 32 33 33 33 34 34 33 33 34 37 39 41 41 42 43 44 45 46 46 47 48 49 49 48 48 49 49
20 22 23 25 26 26 28 28 29 30 31 32 32 33 33 33 34 35 35 35 35 35 35 34 34 35 37 39 40 41 42 43 45 46 46 47 48 49 50 49 49 49 50
23 25 26 27 28 29 30 30 31 32 33 34 34 34 35 35 36 36 36 36 35 35 35 34 34 34 36 38 39 40 41 42 43 44 45 46 48 49 50 51 50 50 50
25 27 27 28 29 30 31 32 33 33 34 35 35 36 36 37 37 37 37 36 35 35 34 34 34 34 34 36 38 39 39 40 41 44 45 46 47 48 50 51 51 52 51
27 28 29 30 31 32 33 34 34 35 36 36 37 37 38 38 37 37 37 36 35 34 34 33 33 33 34 35 36 38 39 40 41 43 45 45 47 48 49 50 51 52 52
29 30 31 32 33 34 35 35 36 37 37 37 38 38 38 38 38 37 36 35 35 34 34 33 33 33 33 34 35 36 37 39 40 42 44 44 47 48 48 49 51 52 52
31 32 33 34 35 35 36 37 38 38 39 39 39 39 39 38 38 38 36 35 34 34 33 32 32 32 33 34 35 36 37 38 39 41 43 44 45 48 48 48 49 51 52
32 33 34 35 36 37 38 39 39 40 40 40 41 41 40 39 38 38 37 36 34 34 34 33 32 32 33 34 35 36 37 37 38 40 42 43 44 47 47 48 48 50 51
Wind_Direction
279 280 280 275 273 274 273 270 271 274 271 268 264 261 258 255 253 251 251 250 249 246 243 241 237 234 229 228 226 223 221 220 220 217 215 214 213 212 209 206 204 202 201
285 281 281 278 275 273 273 273 273 274 273 268 266 265 262 258 253 251 251 251 251 251 247 244 242 239 233 230 230 228 225 224 224 222 219 217 216 216 215 213 211 208 207
279 278 280 281 278 274 273 272 273 274 272 270 270 268 265 262 256 253 252 252 251 252 250 247 245 242 237 235 233 231 229 226 225 224 222 220 219 219 219 218 216 214 213
276 276 276 278 278 278 275 273 273 273 272 273 273 272 270 264 261 257 255 254 252 252 253 251 247 245 242 240 236 234 232 229 227 226 225 224 223 222 221 221 221 219 218
277 280 279 279 280 280 279 278 276 276 276 276 275 273 271 266 264 262 258 256 254 255 253 252 249 246 244 242 241 237 234 232 229 228 226 226 225 225 224 223 223 222 222
280 284 286 287 285 283 282 281 280 279 278 278 277 275 271 266 264 264 262 259 258 256 253 251 249 247 246 244 242 239 236 234 232 230 228 227 228 227 226 226 225 225 225
290 292 292 293 292 290 288 286 285 284 282 281 279 277 275 270 266 266 264 262 259 257 254 251 249 247 245 245 243 242 240 236 236 234 231 229 229 229 229 228 228 228 228
294 300 303 303 301 297 295 293 292 290 289 288 285 281 279 275 271 268 265 263 261 258 255 253 251 250 247 245 244 243 241 239 238 237 236 233 231 230 230 230 230 230 230
306 315 318 316 313 309 304 302 299 297 295 293 291 288 285 280 276 272 268 265 263 260 257 254 253 251 249 247 246 243 242 241 240 240 239 237 235 233 232 232 231 231 231
329 329 328 326 323 319 315 311 307 304 301 298 296 293 289 284 280 276 272 269 266 264 261 258 255 252 249 249 248 245 243 243 242 243 240 238 237 236 234 234 233 232 232
333 333 333 332 329 324 319 315 311 307 303 301 298 295 292 288 284 280 277 274 269 266 263 260 257 254 251 249 248 247 245 244 243 242 241 240 240 238 236 235 234 233 233
331 330 330 329 328 325 322 319 317 313 309 306 303 299 295 292 288 284 281 278 274 269 265 262 259 256 253 250 248 247 247 245 244 243 242 241 241 240 239 237 235 235 234
329 330 330 329 327 325 324 321 318 315 312 308 306 302 299 296 292 288 285 281 278 275 270 265 262 259 256 252 249 248 247 245 245 244 242 240 240 240 240 239 238 236 235
326 329 330 330 327 325 323 321 320 317 314 311 308 304 301 297 294 291 288 284 281 277 274 269 264 261 258 256 251 249 248 247 246 246 243 241 241 240 240 239 239 237 237
323 325 327 327 326 324 323 321 320 319 316 312 309 306 303 299 296 292 289 286 283 279 276 272 268 263 260 257 254 251 249 248 247 245 243 243 242 241 240 238 239 238 238
320 321 323 324 323 322 322 321 320 318 316 314 312 309 306 302 298 294 290 287 285 281 277 274 271 267 262 258 255 253 250 248 246 246 244 243 242 241 240 239 239 237 237
317 320 322 322 321 320 320 320 319 318 317 315 314 312 309 306 302 299 295 292 288 284 279 274 272 269 266 261 257 254 252 250 248 247 245 243 242 242 240 239 238 237 236
319 320 320 320 320 319 319 319 319 319 317 316 315 313 310 308 305 302 299 296 292 288 282 277 272 269 267 263 260 256 253 251 249 248 246 244 242 241 241 239 238 237 236
316 317 318 319 319 319 319 319 319 319 317 316 315 313 311 309 307 304 301 298 294 291 286 280 274 270 267 265 261 258 255 252 250 248 247 245 243 241 240 240 238 237 236
313 315 316 318 318 319 319 318 318 318 317 316 315 314 313 311 309 306 303 300 296 293 288 283 277 272 269 266 263 259 256 253 251 249 248 246 245 243 241 240 238 237 236
310 312 313 315 316 317 318 318 317 317 317 316 315 314 314 313 311 308 304 301 298 294 289 285 280 275 271 267 263 260 257 255 252 250 248 246 245 244 242 241 240 238 237
308 310 310 312 314 315 316 317 317 316 316 315 315 314 314 313 311 309 305 302 299 295 290 286 281 277 273 268 264 261 258 255 254 252 249 247 246 244 243 241 240 239 238
306 308 309 310 311 312 314 315 316 316 315 315 314 314 314 313 311 309 306 302 299 295 291 286 283 279 274 270 266 263 260 257 255 253 251 248 247 245 243 242 240 240 239
305 307 307 309 310 311 312 313 314 314 314 314 314 313 313 312 311 310 307 303 300 296 292 288 284 280 276 273 269 266 263 260 257 255 252 249 247 245 243 242 241 240 239
303 304 306 307 309 310 311 312 313 313 313 314 313 313 313 312 310 308 306 303 299 297 295 290 285 281 278 275 272 268 265 262 258 256 253 249 247 245 243 242 241 240 238
302 303 304 306 308 309 310 311 312 312 312 312 313 313 312 311 309 307 305 303 299 297 295 292 287 283 280 277 274 270 267 264 260 256 253 250 247 245 243 242 242 240 239
Height
5870 5869 5869 5869 5870 5870 5871 5871 5872 5873 5874 5875 5875 5877 5878 5879 5880 5881 5883 5884 5885 5886 5888 5889 5890 5891 5893 5895 5897 5899 5901 5903 5904 5906 5908 5910 5911 5913 5914 5915 5917 5918 5919
5867 5868 5868 5867 5867 5868 5868 5869 5869 5870 5870 5871 5872 5873 5874 5875 5876 5877 5879 5880 5881 5882 5884 5885 5887 5888 5889 5892 5894 5896 5898 5900 5902 5904 5905 5907 5909 5911 5913 5914 5915 5917 5918
5866 5866 5866 5865 5865 5865 5866 5866 5866 5867 5867 5868 5868 5869 5870 5871 5872 5873 5874 5876 5877 5878 5880 5881 5883 5884 5886 5887 5889 5892 5894 5896 5898 5900 5902 5904 5906 5908 5910 5912 5913 5915 5916
5863 5863 5863 5863 5863 5863 5863 5863 5864 5864 5864 5864 5865 5865 5866 5866 5867 5868 5869 5871 5872 5874 5875 5877 5878 5879 5881 5883 5885 5887 5889 5892 5894 5896 5899 5901 5903 5905 5907 5909 5911 5913 5914
5861 5861 5861 5861 5860 5860 5860 5860 5861 5861 5861 5861 5861 5861 5862 5862 5863 5863 5864 5866 5867 5868 5870 5871 5873 5874 5876 5878 5880 5882 5884 5886 5889 5892 5894 5897 5899 5902 5904 5906 5908 5910 5912
5858 5858 5858 5858 5857 5857 5857 5857 5857 5857 5857 5857 5857 5857 5857 5858 5858 5859 5860 5860 5861 5862 5864 5865 5867 5868 5870 5872 5874 5876 5878 5880 5883 5886 5889 5891 5894 5897 5900 5902 5905 5907 5909
5856 5856 5856 5855 5855 5855 5854 5854 5854 5854 5853 5853 5853 5853 5853 5853 5853 5854 5854 5855 5856 5856 5858 5859 5861 5862 5864 5866 5868 5870 5872 5874 5877 5880 5883 5886 5889 5892 5895 5898 5900 5903 5905
5855 5854 5854 5853 5853 5852 5852 5851 5851 5850 5849 5849 5849 5848 5848 5848 5848 5848 5848 5849 5850 5850 5851 5852 5854 5856 5857 5859 5861 5864 5866 5868 5870 5873 5876 5879 5882 5886 5889 5892 5895 5898 5901
5853 5852 5852 5851 5851 5850 5849 5848 5847 5847 5846 5845 5844 5844 5843 5842 5842 5843 5842 5843 5843 5844 5845 5846 5847 5849 5851 5853 5855 5857 5859 5862 5864 5867 5869 5872 5875 5879 5883 5886 5889 5893 5896
5851 5851 5850 5849 5849 5848 5847 5846 5845 5843 5842 5841 5840 5839 5838 5837 5837 5837 5837 5836 5836 5837 5838 5839 5840 5841 5843 5845 5847 5849 5852 5854 5857 5860 5862 5865 5868 5871 5875 5879 5882 5886 5889
5850 5849 5849 5848 5846 5845 5844 5843 5841 5840 5839 5837 5836 5834 5833 5832 5831 5831 5830 5830 5830 5830 5830 5831 5832 5833 5835 5837 5839 5841 5843 5846 5849 5852 5854 5857 5860 5863 5867 5871 5875 5878 5882
5849 5848 5847 5846 5844 5843 5841 5840 5838 5836 5835 5833 5831 5830 5828 5827 5826 5825 5824 5823 5823 5823 5823 5823 5824 5825 5826 5828 5830 5832 5834 5837 5840 5843 5846 5849 5852 5855 5858 5862 5866 5870 5874
5847 5846 5845 5843 5842 5840 5838 5836 5834 5833 5831 5829 5827 5825 5823 5821 5820 5819 5818 5816 5815 5815 5815 5815 5815 5816 5817 5819 5821 5823 5825 5828 5831 5834 5837 5840 5843 5847 5850 5853 5858 5862 5866
5845 5844 5842 5841 5839 5837 5835 5833 5831 5828 5826 5824 5822 5819 5817 5815 5813 5812 5811 5810 5808 5807 5806 5806 5806 5807 5808 5809 5811 5813 5815 5818 5821 5824 5827 5830 5834 5837 5841 5845 5848 5853 5857
5843 5841 5840 5838 5836 5834 5831 5829 5827 5824 5821 5819 5816 5813 5811 5809 5807 5805 5803 5802 5801 5800 5798 5797 5797 5797 5798 5799 5801 5803 5805 5807 5810 5813 5816 5820 5824 5827 5831 5835 5839 5843 5848
5840 5838 5836 5834 5832 5830 5827 5825 5822 5819 5816 5813 5810 5807 5804 5801 5799 5797 5795 5793 5792 5791 5790 5788 5787 5786 5787 5789 5790 5792 5794 5796 5799 5802 5805 5809 5813 5816 5820 5825 5829 5833 5838
5837 5835 5833 5830 5828 5825 5823 5819 5816 5813 5810 5807 5803 5800 5797 5794 5791 5789 5786 5784 5782 5781 5780 5778 5776 5775 5776 5777 5779 5781 5783 5785 5788 5791 5794 5797 5801 5805 5810 5814 5818 5823 5828
5833 5831 5828 5826 5823 5821 5817 5814 5811 5807 5804 5800 5797 5793 5790 5786 5783 5780 5777 5775 5772 5771 5769 5768 5766 5765 5764 5765 5766 5768 5770 5773 5776 5778 5782 5785 5789 5794 5798 5802 5807 5812 5817
5828 5826 5824 5821 5818 5815 5812 5808 5805 5801 5797 5793 5789 5786 5782 5778 5775 5771 5768 5765 5762 5760 5758 5757 5755 5753 5753 5753 5754 5756 5758 5760 5763 5766 5769 5773 5777 5781 5786 5790 5795 5800 5806
5824 5821 5819 5816 5813 5809 5806 5802 5798 5794 5790 5786 5782 5778 5774 5770 5766 5762 5758 5755 5751 5749 5746 5745 5744 5742 5741 5741 5742 5743 5745 5747 5750 5753 5757 5760 5764 5768 5773 5778 5784 5789 5794
5818 5816 5813 5810 5807 5803 5800 5796 5791 5787 5783 5778 5774 5770 5766 5761 5757 5752 5748 5744 5741 5738 5735 5733 5732 5731 5730 5729 5730 5731 5733 5735 5738 5740 5744 5748 5752 5756 5760 5765 5770 5775 5781
5812 5810 5807 5804 5800 5797 5793 5789 5784 5780 5775 5771 5766 5761 5757 5752 5747 5743 5738 5734 5730 5727 5724 5722 5721 5720 5719 5718 5718 5719 5721 5724 5726 5728 5731 5735 5738 5743 5747 5752 5757 5762 5768
5806 5803 5800 5797 5793 5789 5785 5781 5777 5772 5767 5763 5758 5753 5748 5743 5738 5733 5729 5724 5720 5717 5714 5712 5710 5709 5708 5707 5707 5708 5709 5711 5714 5715 5718 5723 5725 5730 5734 5739 5744 5749 5755
5799 5796 5793 5789 5785 5782 5777 5773 5768 5764 5759 5754 5749 5744 5739 5734 5728 5724 5719 5715 5710 5707 5704 5702 5700 5698 5697 5696 5696 5697 5697 5699 5702 5703 5705 5709 5712 5716 5720 5725 5730 5736 5742
5791 5788 5785 5781 5777 5773 5769 5764 5760 5755 5750 5745 5740 5734 5729 5724 5719 5714 5710 5706 5701 5697 5694 5692 5690 5688 5686 5685 5685 5685 5686 5687 5689 5690 5692 5696 5699 5702 5707 5712 5717 5722 5728
5783 5780 5777 5773 5769 5765 5760 5755 5750 5746 5741 5735 5730 5725 5720 5715 5709 5704 5700 5696 5692 5688 5685 5682 5680 5678 5676 5675 5674 5673 5674 5675 5676 5678 5679 5682 5686 5689 5694 5699 5704 5709 5714